Location: ????????
(54.9045°N, 39.1041°E)
Time: 12:26:40
(UTC+00:00)

Meteor 1-27 Rocket - Pass Details

Date: 14 April 2024
Orbit: 829 x 909 km, 81.3° (Epoch: 21 May)

Event Time Altitude Azimuth Distance (km) Brightness Sun altitude
Exits shadow 01:14:52 - 211° (SSW) 2,668 5.7 -9.6°
Reaches altitude 10° 01:15:13 10° 212° (SSW) 2,542 5.6 -9.6°
Maximum altitude 01:20:53 55° 290° (WNW) 1,043 4.0 -8.9°
Drops below altitude 10° 01:26:28 10° 8° (N) 2,504 6.7 -8.2°
Sets 01:28:57 0° 13° (NNE) 3,433 7.6 -7.9°
